Location: Fxbg
(38.3018°N, 77.4708°W)
Time: 16:52:12
(UTC-04:00)

ISS - Visible Passes

Search period start: 27 June 2017 00:00
Search period end: 07 July 2017 00:00
Orbit: 401 x 408 km, 51.6° (Epoch: 28 June)

Date Brightness Start Highest point End Pass type
(mag) Time Alt. Az. Time Alt. Az. Time Alt. Az.
03 Jul -1.5 05:00:00 10° S 05:02:15 18° SE 05:04:32 10° E visible
05 Jul -3.1 04:51:27 15° SSW 04:53:56 45° SE 04:57:05 10° ENE visible
06 Jul -2.1 04:01:15 21° SSE 04:01:46 22° SE 04:04:23 10° ENE visible
